TimeMDT,TemperatureF,Dew PointF,Humidity,Sea Level PressureIn,VisibilityMPH,Wind Direction,Wind SpeedMPH,Gust SpeedMPH,PrecipitationIn,Events,Conditions,WindDirDegrees,DateUTC
12:56 AM,68.0,41.0,37,29.64,9.0,North,8.1,-,N/A,,Mostly Cloudy,10,2012-09-11 06:56:00
1:56 AM,68.0,44.1,42,29.62,9.0,NNW,9.2,-,N/A,,Clear,340,2012-09-11 07:56:00
2:56 AM,66.0,37.0,34,29.64,10.0,North,16.1,24.2,N/A,,Clear,350,2012-09-11 08:56:00
3:56 AM,64.0,33.1,31,29.70,10.0,NNW,18.4,28.8,N/A,,Clear,340,2012-09-11 09:56:00
4:56 AM,60.1,33.1,36,29.73,10.0,NNW,13.8,21.9,N/A,,Clear,340,2012-09-11 10:56:00
5:56 AM,55.9,34.0,44,29.78,10.0,NNW,10.4,-,N/A,,Clear,330,2012-09-11 11:56:00
6:56 AM,54.0,33.1,45,29.81,10.0,NW,10.4,-,N/A,,Clear,320,2012-09-11 12:56:00
7:56 AM,55.9,35.1,45,29.84,10.0,NW,10.4,-,N/A,,Clear,310,2012-09-11 13:56:00
8:56 AM,60.1,30.9,33,29.87,10.0,NNW,16.1,20.7,N/A,,Partly Cloudy,340,2012-09-11 14:56:00
9:56 AM,63.0,28.9,28,29.88,10.0,North,17.3,-,N/A,,Clear,350,2012-09-11 15:56:00
10:56 AM,64.9,27.0,24,29.88,10.0,North,15.0,21.9,N/A,,Clear,350,2012-09-11 16:56:00
11:56 AM,66.0,23.0,20,29.88,10.0,NW,15.0,21.9,N/A,,Clear,320,2012-09-11 17:56:00
12:56 PM,69.1,23.0,18,29.89,10.0,NNW,16.1,21.9,N/A,,Clear,330,2012-09-11 18:56:00
1:56 PM,70.0,21.9,16,29.88,10.0,NNW,12.7,24.2,N/A,,Clear,330,2012-09-11 19:56:00
2:56 PM,69.1,23.0,18,29.88,10.0,WNW,18.4,23.0,N/A,,Clear,300,2012-09-11 20:56:00
3:56 PM,68.0,23.0,18,29.89,10.0,NW,11.5,23.0,N/A,,Clear,320,2012-09-11 21:56:00
4:56 PM,68.0,24.1,19,29.91,10.0,NW,15.0,-,N/A,,Clear,320,2012-09-11 22:56:00
5:56 PM,64.9,25.0,22,29.94,10.0,NW,15.0,19.6,N/A,,Clear,310,2012-09-11 23:56:00
6:56 PM,62.1,26.1,25,29.96,10.0,NW,6.9,-,N/A,,Clear,310,2012-09-12 00:56:00
7:56 PM,55.9,26.1,32,30.00,10.0,WNW,4.6,-,N/A,,Clear,300,2012-09-12 01:56:00
8:56 PM,50.0,26.1,39,30.04,10.0,WNW,3.5,-,N/A,,Clear,290,2012-09-12 02:56:00
9:56 PM,46.0,26.1,46,30.06,10.0,West,5.8,-,N/A,,Clear,270,2012-09-12 03:56:00
10:56 PM,45.0,26.1,48,30.09,10.0,West,6.9,-,N/A,,Mostly Cloudy,280,2012-09-12 04:56:00
11:56 PM,45.0,25.0,46,30.10,10.0,West,4.6,-,N/A,,Overcast,280,2012-09-12 05:56:00